Tracking 33744 objects as of 13-Apr-2026
HD Live streaming from Space Station
objects crossing your sky now

STARLINK-36646

Track STARLINK-36646 now!
10-day predictions
STARLINK-36646 is classified as:


NORAD ID: 67823
Int'l Code: 2026-033C
Perigee: 489.5 km
Apogee: 490.8 km
Inclination: 43.0 °
Period: 94.3 minutes
Semi major axis: 6861 km
RCS: Unknown
Launch date: February 16, 2026
Source: United States (US)
Launch site: AIR FORCE EASTERN TEST RANGE (AFETR)
Your satellite tracking list
Your tracking list is empty




NASA's NSSDC Master Catalog

Two Line Element Set (TLE):
1 67823U 26033C   26102.95033800  .00010475  00000-0  38961-3 0  9996
2 67823  43.0015  73.5711 0000959 262.8518  97.2225 15.27582052  9913
Source of the keplerian elements: AFSPC